This demonstration page uses our WeatherBlox Daily Observations layout. Learn more.

Hourly Observations for September 20, 2019

Temp ( °F °C ) Dew Point ( °F °C ) Humidity (%) Winds ( mph kmh ) Pressure ( in mb ) Visibility ( mi km ) Precip ( " mm )
12:54 am 00:54 Clear 74 23.3 68 20 82 82 SSE 7 11 29.91 1013 10 16.09344 0 0
1:54 am 01:54 Clear 73 22.8 68 20 84 84 S 8 13 29.91 1013 10 16.09344 0 0
2:54 am 02:54 Clear 73 22.8 68 20 84 84 S 8 13 29.91 1013 10 16.09344 0 0
3:54 am 03:54 Clear 73 22.8 67 19.4 81 81 S 9 15 29.91 1013 10 16.09344 0 0
4:54 am 04:54 Clear 71 21.7 67 19.4 87 87 SSE 7 11 29.91 1013 10 16.09344 0 0
5:54 am 05:54 Clear 72 22.2 67 19.4 84 84 SSE 7 11 29.91 1013 10 16.09344 0 0
6:54 am 06:54 Clear 71 21.7 67 19.4 87 87 S 3 6 29.91 1013 10 16.09344 0 0
7:54 am 07:54 Sunny 71 21.7 67 19.4 87 87 SSE 3 6 29.94 1014 9 14.484096 0 0
8:54 am 08:54 Sunny 74 23.3 67 19.4 79 79 SSE 10 17 29.94 1014 10 16.09344 0 0
9:54 am 09:54 Partly Cloudy 78 25.6 68 20 71 71 S 12 19 29.94 1014 10 16.09344 0 0
10:54 am 10:54 Mostly Cloudy 80 26.7 68 20 67 67 S 12 19 29.94 1014 10 16.09344 0 0
11:54 am 11:54 Partly Cloudy 83 28.3 66 18.9 57 57 S 13 20 29.91 1013 10 16.09344 0 0
12:54 pm 12:54 Sunny 86 30 65 18.3 49 49 SSE 21 33 29.91 1013 10 16.09344 0 0
1:54 pm 13:54 Mostly Sunny 88 31.1 65 18.3 46 46 SSE 24 39 29.88 1012 10 16.09344 0 0
2:54 pm 14:54 Partly Cloudy 87 30.6 65 18.3 48 48 SSE 24 39 29.85 1011 10 16.09344 0 0
3:54 pm 15:54 Mostly Cloudy 86 30 66 18.9 51 51 SSE 21 33 29.85 1011 10 16.09344 0 0
4:54 pm 16:54 Cloudy 82 27.8 68 20 63 63 SSE 17 28 29.85 1011 10 16.09344 0 0
5:54 pm 17:54 Cloudy 79 26.1 67 19.4 67 67 SSE 23 37 29.85 1011 10 16.09344 0 0
6:54 pm 18:54 Mostly Sunny 77 25 66 18.9 69 69 S 16 26 29.83 1010 10 16.09344 0 0
7:15 pm 19:15 Mostly Cloudy 77 25 66 18.9 69 69 S 17 28 29.83 1010 10 16.09344 0 0
7:54 pm 19:54 Cloudy 75 23.9 66 18.9 74 74 S 17 28 29.85 1011 10 16.09344 0 0
8:54 pm 20:54 Cloudy 74 23.3 67 19.4 79 79 S 16 26 29.85 1011 10 16.09344 0 0
9:54 pm 21:54 Cloudy 74 23.3 67 19.4 79 79 S 16 26 29.83 1010 10 16.09344 0 0
10:09 pm 22:09 Cloudy with Light Rain 72 22.2 69 20.6 91 91 S 16 26 29.85 1011 4 6.437376 0.001 0.001
10:12 pm 22:12 Cloudy with Light Rain 72 22.2 69 20.6 91 91 S 17 28 29.85 1011 6 9.656064 0.001 0.001
10:19 pm 22:19 Cloudy 72 22.2 68 20 87 87 S 15 24 29.85 1011 10 16.09344 0.001 0.001
10:26 pm 22:26 Mostly Cloudy 72 22.2 68 20 87 87 SSE 13 20 29.85 1011 10 16.09344 0.001 0.001
10:54 pm 22:54 Cloudy 72 22.2 68 20 87 87 SSE 15 24 29.83 1010 10 16.09344 0.001 0.001
11:54 pm 23:54 Cloudy 72 22.2 68 20 87 87 S 15 24 29.83 1010 10 16.09344 0 0

Powered by AerisWeather